Tracking 18843 objects as of 20-November-2017
HD Live streaming from Space Station
objects crossing your sky now

SKCUBE

Track SKCUBE now!
10-day predictions
SKCUBE is classified as:


NORAD ID: 42789
Int'l Code: 2017-036AA
Perigee: 499.7 km
Apogee: 518.5 km
Inclination: 97.4 °
Period: 94.7 minutes
Semi major axis: 6880 km
RCS: Unknown
Launch date: June 23, 2017
Source: Slovakia (SK)
Launch site: SRIHARIKOTA (SRI)
Uplink (MHz): 437.100
Downlink (MHz): 437.100/2401.000
Beacon (MHz):
Mode: 9600bps GMSK Digipeater
Call sign: OM9SAT
Status: Active

aabbcc
Your satellite tracking list
Your tracking list is empty




NASA's NSSDC Master Catalog

Two Line Element Set (TLE):
1 42789U 17036AA  17323.74948287 +.00002390 +00000-0 +10978-3 0  9994
2 42789 097.4315 021.6914 0013677 091.0304 269.2499 15.21280110022663
Source of the keplerian elements: AFSPC